Chariton, IA

11:15 AM CST on December 04, 2016 (GMT -0600)
Chariton Municipal

Weather History for KCNC - December, 2013

Change the Weather History Date:

Tuesday, December 17, 2013

  Actual Average Record
Temperature  
Mean Temperature 30 °F -  
Max Temperature 39 °F 34 °F 56 °F (1962)
Min Temperature 21 °F 16 °F -8 °F (1964)
Degree Days  
Heating Degree Days 35    
Moisture  
Dew Point 19 °F    
Average Humidity 64    
Maximum Humidity 93    
Minimum Humidity 36    
Precipitation  
Precipitation 0.00 in - - ()
Sea Level Pressure  
Sea Level Pressure 30.16 in    
Wind  
Wind Speed 10 mph (West)    
Max Wind Speed 31 mph    
Max Gust Speed 39 mph    
Visibility 10 miles    
Events      
Averages and records for this station are not official NWS values.
T = Trace of Precipitation, MM = Missing Value Source: NWS Daily Summary

Daily Weather History Graph

Daily Weather History Graph

Search for Another Location

Airport or City:

Trip Planner

Search our weather history database for the weather conditions in past years. The results will help you decide how hot, cold, wet, or windy it might be!

Date:

Astronomy

Dec. 17, 2013 Rise Set
Actual Time 7:32 AM CST 4:46 PM CST
Civil Twilight 7:01 AM CST 5:17 PM CST
Nautical Twilight 6:27 AM CST 5:52 PM CST
Astronomical Twilight 5:53 AM CST 6:25 PM CST
Moon 5:27 PM CST (12/17) 7:29 AM CST (12/17)
Length of Visible Light 10h 16m
Length of Day
9h 13m
Full, 100% of the Moon is Illuminated
Dec 17
Full
Dec 25
Last Quarter
Jan 1
New
Jan 7
First Quarter
Jan 15
Full

Hourly Weather History & Observations

Time (CST) Temp. Windchill Dew Point Humidity Pressure Visibility Wind Dir Wind Speed Gust Speed Precip Events Conditions
12:15 AM 30.2 °F 21.9 °F 24.8 °F 80% 30.11 in 10.0 mi West 9.2 mph - N/A   Unknown
12:35 AM 30.2 °F 23.4 °F 23.0 °F 75% 30.11 in 10.0 mi West 6.9 mph - N/A   Unknown
12:55 AM 28.4 °F 21.2 °F 23.0 °F 80% 30.10 in 10.0 mi WSW 6.9 mph - N/A   Unknown
1:15 AM 28.4 °F 22.2 °F 23.0 °F 80% 30.11 in 10.0 mi West 5.8 mph - N/A   Unknown
1:35 AM 28.4 °F 22.2 °F 23.0 °F 80% 30.11 in 10.0 mi WSW 5.8 mph - N/A   Unknown
1:55 AM 26.6 °F 18.2 °F 23.0 °F 86% 30.10 in 10.0 mi WSW 8.1 mph - N/A   Unknown
2:15 AM 26.6 °F 19.1 °F 23.0 °F 86% 30.10 in 10.0 mi WSW 6.9 mph - N/A   Unknown
2:35 AM 28.4 °F 21.2 °F 24.8 °F 86% 30.10 in 10.0 mi WSW 6.9 mph - N/A   Unknown
2:55 AM 28.4 °F 20.4 °F 23.0 °F 80% 30.11 in 10.0 mi WSW 8.1 mph - N/A   Overcast
3:15 AM 26.6 °F 18.2 °F 23.0 °F 86% 30.11 in 10.0 mi WSW 8.1 mph - N/A   Overcast
3:35 AM 26.6 °F 19.1 °F 23.0 °F 86% 30.11 in 10.0 mi WSW 6.9 mph - N/A   Unknown
3:55 AM 26.6 °F 20.0 °F 23.0 °F 86% 30.10 in 10.0 mi SW 5.8 mph - N/A   Unknown
4:15 AM 26.6 °F 20.0 °F 23.0 °F 86% 30.10 in 10.0 mi SW 5.8 mph - N/A   Unknown
4:35 AM 26.6 °F 19.1 °F 23.0 °F 86% 30.09 in 10.0 mi WSW 6.9 mph - N/A   Unknown
4:55 AM 24.8 °F 16.1 °F 23.0 °F 93% 30.09 in 10.0 mi WSW 8.1 mph - N/A   Unknown
5:15 AM 26.6 °F 17.5 °F 23.0 °F 86% 30.09 in 10.0 mi WSW 9.2 mph - N/A   Clear
5:35 AM 26.6 °F 18.2 °F 23.0 °F 86% 30.10 in 10.0 mi WSW 8.1 mph - N/A   Clear
5:55 AM 26.6 °F 17.5 °F 23.0 °F 86% 30.10 in 10.0 mi WSW 9.2 mph - N/A   Clear
6:15 AM 26.6 °F 17.5 °F 23.0 °F 86% 30.10 in 10.0 mi WSW 9.2 mph - N/A   Unknown
6:35 AM 30.2 °F 18.5 °F 24.8 °F 80% 30.09 in 10.0 mi West 17.3 mph 25.3 mph N/A   Overcast
6:55 AM 32.0 °F 22.5 °F 26.6 °F 80% 30.10 in 10.0 mi West 12.7 mph 19.6 mph N/A   Unknown
7:15 AM 30.2 °F 21.3 °F 24.8 °F 80% 30.11 in 10.0 mi WNW 10.4 mph - N/A   Unknown
7:35 AM 30.2 °F 20.8 °F 26.6 °F 86% 30.11 in 9.0 mi West 11.5 mph - N/A   Unknown
7:55 AM 30.2 °F 20.8 °F 26.6 °F 86% 30.13 in 9.0 mi West 11.5 mph - N/A   Overcast
8:15 AM 32.0 °F 23.6 °F 26.6 °F 80% 30.13 in 10.0 mi West 10.4 mph - N/A   Overcast
8:35 AM 32.0 °F 23.0 °F 26.6 °F 80% 30.15 in 10.0 mi WNW 11.5 mph 17.3 mph N/A   Overcast
8:55 AM 33.8 °F 25.3 °F 26.6 °F 75% 30.16 in 10.0 mi WNW 11.5 mph 18.4 mph N/A   Mostly Cloudy
9:15 AM 33.8 °F 24.8 °F 26.6 °F 75% 30.16 in 10.0 mi WNW 12.7 mph - N/A   Mostly Cloudy
9:35 AM 33.8 °F 24.8 °F 26.6 °F 75% 30.17 in 10.0 mi WNW 12.7 mph - N/A   Overcast
9:55 AM 33.8 °F 24.8 °F 26.6 °F 75% 30.17 in 10.0 mi WNW 12.7 mph - N/A   Mostly Cloudy
10:15 AM 35.6 °F 26.2 °F 26.6 °F 70% 30.18 in 10.0 mi WNW 15.0 mph - N/A   Overcast
10:35 AM 35.6 °F 26.2 °F 26.6 °F 70% 30.18 in 10.0 mi NW 15.0 mph 24.2 mph N/A   Mostly Cloudy
10:55 AM 37.4 °F 27.8 °F 24.8 °F 60% 30.18 in 10.0 mi NW 17.3 mph 26.5 mph N/A   Scattered Clouds
11:15 AM 37.4 °F 26.1 °F 23.0 °F 56% 30.17 in 10.0 mi NW 24.2 mph 32.2 mph N/A   Partly Cloudy
11:35 AM 37.4 °F 26.1 °F 21.2 °F 52% 30.17 in 10.0 mi NW 24.2 mph 36.8 mph N/A   Clear
11:55 AM 39.2 °F 28.3 °F 19.4 °F 45% 30.16 in 10.0 mi NW 25.3 mph 31.1 mph N/A   Clear
12:15 PM 39.2 °F 29.3 °F 17.6 °F 42% 30.17 in 10.0 mi NW 20.7 mph 27.6 mph N/A   Clear
12:35 PM 39.2 °F 29.0 °F 17.6 °F 42% 30.17 in 10.0 mi NW 21.9 mph 33.4 mph N/A   Clear
12:55 PM 39.2 °F 27.2 °F 14.0 °F 36% 30.16 in 10.0 mi NW 31.1 mph 39.1 mph N/A   Clear
1:15 PM 39.2 °F 29.3 °F 15.8 °F 39% 30.16 in 10.0 mi NW 20.7 mph 28.8 mph N/A   Clear
1:35 PM 39.2 °F 29.8 °F 15.8 °F 39% 30.16 in 10.0 mi NW 18.4 mph 27.6 mph N/A   Clear
1:55 PM 39.2 °F 29.6 °F 15.8 °F 39% 30.16 in 10.0 mi NW 19.6 mph 33.4 mph N/A   Partly Cloudy
2:15 PM 39.2 °F 30.2 °F 15.8 °F 39% 30.16 in 10.0 mi NW 17.3 mph 31.1 mph N/A   Clear
2:35 PM 39.2 °F 29.0 °F 14.0 °F 36% 30.16 in 10.0 mi WNW 21.9 mph 31.1 mph N/A   Clear
2:55 PM 37.4 °F 26.1 °F 12.2 °F 36% 30.17 in 10.0 mi WNW 24.2 mph 34.5 mph N/A   Clear
3:15 PM 37.4 °F 26.9 °F 12.2 °F 36% 30.18 in 10.0 mi NW 20.7 mph 27.6 mph N/A   Clear
3:35 PM 37.4 °F 27.5 °F 12.2 °F 36% 30.18 in 10.0 mi NW 18.4 mph 28.8 mph N/A   Clear
3:55 PM 37.4 °F 27.8 °F 12.2 °F 36% 30.19 in 10.0 mi NW 17.3 mph 26.5 mph N/A   Clear
4:15 PM 35.6 °F 27.1 °F 14.0 °F 41% 30.19 in 10.0 mi NW 12.7 mph 23.0 mph N/A   Clear
4:35 PM 33.8 °F 25.3 °F 14.0 °F 44% 30.20 in 10.0 mi NW 11.5 mph 19.6 mph N/A   Clear
4:55 PM 33.8 °F 24.8 °F 12.2 °F 41% 30.20 in 10.0 mi NW 12.7 mph 19.6 mph N/A   Clear
5:15 PM 32.0 °F 24.2 °F 12.2 °F 44% 30.20 in 10.0 mi WNW 9.2 mph - N/A   Unknown
5:35 PM 30.2 °F 22.6 °F 14.0 °F 51% 30.20 in 10.0 mi West 8.1 mph - N/A   Unknown
5:55 PM 30.2 °F 22.6 °F 14.0 °F 51% 30.20 in 10.0 mi WNW 8.1 mph - N/A   Unknown
6:15 PM 30.2 °F 22.6 °F 14.0 °F 51% 30.21 in 10.0 mi West 8.1 mph - N/A   Unknown
6:35 PM 28.4 °F 21.2 °F 14.0 °F 55% 30.21 in 10.0 mi West 6.9 mph - N/A   Unknown
6:55 PM 28.4 °F 21.2 °F 14.0 °F 55% 30.21 in 10.0 mi West 6.9 mph - N/A   Unknown
7:15 PM 28.4 °F 20.4 °F 14.0 °F 55% 30.22 in 10.0 mi West 8.1 mph - N/A   Unknown
7:35 PM 26.6 °F 20.0 °F 14.0 °F 59% 30.22 in 10.0 mi WSW 5.8 mph - N/A   Clear
7:55 PM 28.4 °F 21.2 °F 14.0 °F 55% 30.22 in 10.0 mi West 6.9 mph - N/A   Unknown
8:15 PM 26.6 °F 20.0 °F 14.0 °F 59% 30.22 in 10.0 mi West 5.8 mph - N/A   Unknown
8:35 PM 26.6 °F 20.0 °F 14.0 °F 59% 30.21 in 10.0 mi West 5.8 mph - N/A   Unknown
8:55 PM 26.6 °F 19.1 °F 14.0 °F 59% 30.21 in 10.0 mi West 6.9 mph - N/A   Unknown
9:15 PM 26.6 °F 21.2 °F 12.2 °F 55% 30.21 in 10.0 mi West 4.6 mph - N/A   Clear
9:35 PM 28.4 °F - 14.0 °F 55% 30.20 in 10.0 mi Calm Calm - N/A   Unknown
9:55 PM 23.0 °F 15.8 °F 12.2 °F 63% 30.20 in 10.0 mi South 5.8 mph - N/A   Unknown
10:15 PM 23.0 °F 17.0 °F 12.2 °F 63% 30.20 in 8.0 mi SW 4.6 mph - N/A   Unknown
10:35 PM 23.0 °F 17.0 °F 12.2 °F 63% 30.20 in 10.0 mi SSW 4.6 mph - N/A   Unknown
10:55 PM 21.2 °F 14.9 °F 12.2 °F 68% 30.20 in 10.0 mi SSW 4.6 mph - N/A   Unknown
11:15 PM 23.0 °F 14.7 °F 14.0 °F 68% 30.19 in 10.0 mi SW 6.9 mph - N/A   Unknown
11:35 PM 23.0 °F 17.0 °F 14.0 °F 68% 30.18 in 10.0 mi SSW 4.6 mph - N/A   Clear
11:55 PM 23.0 °F 14.7 °F 14.0 °F 68% 30.19 in 10.0 mi SSW 6.9 mph - N/A   Clear